Date String (YYYY-MM-DD hh:mm:ss) UTC,Instrument flags,Ambient pressure (hPa),Sample flow (lpm),Bypass flow (lpm),Sample temperature (°C),Ambient temperature (°C),ASC tube jacket temperature (°C),LED temperature (°C),Box temperature (°C),Sample RH (%),Span deviation,Mass concentration (μg/m³),Mass concentration (μg/m³),Mass concentration (μg/m³)
DateTimeUTC,F1_M11,P_M11,Q1_M11,Q2_M11,T1_M11,T2_M11,T3_M11,T4_M11,T5_M11,U1_M11,ZSPAN_M11,X0_M11,X2_M11,X1_M11
2021-11-03 12:00:00,,0832.0,5.01,0.00,23.6,22.7,00.0,32.6,25.3,23.0,0000.0,0002.53,0002.23,0002.10
2021-11-03 12:01:00,,0832.0,4.99,0.00,23.6,22.7,00.0,32.6,25.4,23.1,0000.0,0002.61,0002.29,0002.16
2021-11-03 12:02:00,,0832.0,5.01,0.00,23.6,22.7,00.0,32.6,25.4,23.1,0000.0,0002.66,0002.33,0002.20
2021-11-03 12:03:00,,0831.9,4.99,0.00,23.6,22.7,00.0,32.6,25.4,23.1,0000.0,0002.72,0002.38,0002.24
2021-11-03 12:04:00,,0831.9,5.01,0.00,23.6,22.7,00.0,32.6,25.4,23.0,0000.0,0002.89,0002.47,0002.31
2021-11-03 12:05:00,,0832.0,4.99,0.00,23.5,22.7,00.0,32.6,25.4,23.0,0000.0,0003.19,0002.56,0002.38
2021-11-03 12:06:00,,0832.0,5.00,0.00,23.6,22.7,00.0,32.6,25.4,23.0,0000.0,0003.67,0002.65,0002.46
2021-11-03 12:07:00,,0832.0,5.00,0.00,23.6,22.7,00.0,32.6,25.4,23.0,0000.0,0004.13,0002.74,0002.54
2021-11-03 12:08:00,,0832.0,5.00,0.00,23.6,22.7,00.0,32.6,25.4,22.9,0000.0,0004.15,0002.78,0002.59
2021-11-03 12:09:00,,0832.0,5.01,0.00,23.6,22.7,00.0,32.6,25.3,22.8,0000.0,0004.20,0002.81,0002.62
2021-11-03 12:10:00,,0832.0,4.99,0.00,23.6,22.7,00.0,32.6,25.3,22.9,0000.0,0004.18,0002.80,0002.62
2021-11-03 12:11:00,,0832.0,5.01,0.00,23.6,22.7,00.0,32.6,25.3,22.9,0000.0,0004.78,0002.75,0002.59
2021-11-03 12:12:00,,0832.0,5.02,0.00,23.5,22.7,00.0,32.6,25.3,22.9,0000.0,0005.18,0002.72,0002.57
2021-11-03 12:13:00,,0832.0,5.01,0.00,23.5,22.7,00.0,32.6,25.3,23.0,0000.0,0005.20,0002.73,0002.58
2021-11-03 12:14:00,,0832.0,4.99,0.00,23.5,22.7,00.0,32.6,25.3,23.1,0000.0,0005.20,0002.74,0002.60
2021-11-03 12:15:00,,0832.0,5.01,0.00,23.5,22.7,00.0,32.6,25.3,23.1,0000.0,0005.14,0002.75,0002.63
2021-11-03 12:16:00,,0831.9,5.00,0.00,23.5,22.7,00.0,32.6,25.3,23.2,0000.0,0004.99,0002.77,0002.66
2021-11-03 12:17:00,,0832.0,4.99,0.00,23.5,22.7,00.0,32.6,25.4,23.2,0000.0,0004.60,0002.79,0002.68
2021-11-03 12:18:00,,0832.1,5.01,0.00,23.5,22.7,00.0,32.6,25.3,23.0,0000.0,0004.34,0002.81,0002.69
2021-11-03 12:19:00,,0832.2,4.99,0.00,23.5,22.7,00.0,32.6,25.3,22.9,0000.0,0004.37,0002.80,0002.67
2021-11-03 12:20:00,,0832.1,5.00,0.00,23.5,22.7,00.0,32.6,25.3,22.7,0000.0,0004.31,0002.74,0002.61
2021-11-03 12:21:00,,0832.1,5.00,0.00,23.5,22.7,00.0,32.6,25.3,22.8,0000.0,0004.29,0002.71,0002.57
2021-11-03 12:22:00,,0832.1,4.99,0.00,23.5,22.7,00.0,32.6,25.2,22.8,0000.0,0003.58,0002.69,0002.55
2021-11-03 12:23:00,,0832.1,5.00,0.00,23.5,22.7,00.0,32.6,25.2,22.9,0000.0,0003.14,0002.69,0002.54
2021-11-03 12:24:00,,0832.1,5.00,0.00,23.5,22.6,00.0,32.6,25.2,22.8,0000.0,0003.17,0002.68,0002.51
2021-11-03 12:25:00,,0832.1,4.98,0.00,23.5,22.6,00.0,32.6,25.3,22.8,0000.0,0003.15,0002.65,0002.45
2021-11-03 12:26:00,,0832.1,5.00,0.00,23.5,22.6,00.0,32.6,25.3,22.7,0000.0,0003.04,0002.57,0002.38
2021-11-03 12:27:00,,0832.1,5.01,0.00,23.5,22.6,00.0,32.6,25.3,22.4,0000.0,0002.89,0002.46,0002.28
2021-11-03 12:28:00,,0832.1,5.00,0.00,23.5,22.6,00.0,32.6,25.3,22.3,0000.0,0002.75,0002.35,0002.19
2021-11-03 12:29:00,,0832.1,5.01,0.00,23.5,22.6,00.0,32.5,25.3,22.2,0000.0,0002.59,0002.26,0002.11
2021-11-03 12:30:00,,0832.0,4.99,0.00,23.5,22.6,00.0,32.5,25.3,22.3,0000.0,0002.52,0002.22,0002.09
2021-11-03 12:31:00,,0832.1,5.01,0.00,23.5,22.6,00.0,32.5,25.3,22.2,0000.0,0002.57,0002.25,0002.10
2021-11-03 12:32:00,,0832.1,5.00,0.00,23.5,22.6,00.0,32.5,25.3,22.2,0000.0,0002.54,0002.22,0002.07
2021-11-03 12:33:00,,0832.1,4.99,0.00,23.5,22.6,00.0,32.5,25.2,22.2,0000.0,0002.49,0002.18,0002.03
2021-11-03 12:34:00,,0832.1,5.01,0.00,23.5,22.6,00.0,32.5,25.2,22.3,0000.0,0002.42,0002.13,0001.99
2021-11-03 12:35:00,,0832.1,5.01,0.00,23.5,22.6,00.0,32.5,25.2,22.2,0000.0,0002.33,0002.08,0001.96
2021-11-03 12:36:00,,0832.1,4.99,0.00,23.5,22.6,00.0,32.5,25.3,22.2,0000.0,0002.25,0002.03,0001.94
2021-11-03 12:37:00,,0832.1,5.02,0.00,23.5,22.6,00.0,32.5,25.2,22.2,0000.0,0002.22,0002.01,0001.93
2021-11-03 12:38:00,,0832.1,4.99,0.00,23.5,22.6,00.0,32.5,25.2,22.2,0000.0,0002.24,0002.03,0001.94
2021-11-03 12:39:00,,0832.1,5.01,0.00,23.5,22.6,00.0,32.5,25.2,22.3,0000.0,0002.29,0002.07,0001.97
2021-11-03 12:40:00,,0832.0,4.99,0.00,23.5,22.6,00.0,32.5,25.2,22.4,0000.0,0002.33,0002.10,0002.00
2021-11-03 12:41:00,,0832.1,5.02,0.00,23.5,22.6,00.0,32.5,25.2,22.5,0000.0,0002.44,0002.15,0002.02
2021-11-03 12:42:00,,0832.1,5.00,0.00,23.5,22.6,00.0,32.5,25.2,22.5,0000.0,0002.43,0002.17,0002.05
2021-11-03 12:43:00,,0832.2,5.00,0.00,23.5,22.6,00.0,32.5,25.2,22.6,0000.0,0002.42,0002.20,0002.09
2021-11-03 12:44:00,,0832.1,4.99,0.00,23.5,22.6,00.0,32.5,25.2,22.7,0000.0,0002.43,0002.22,0002.11
2021-11-03 12:45:00,,0832.1,5.01,0.00,23.5,22.6,00.0,32.5,25.2,22.7,0000.0,0002.50,0002.27,0002.16
2021-11-03 12:46:00,,0832.1,5.00,0.00,23.4,22.6,00.0,32.5,25.2,22.7,0000.0,0003.17,0002.31,0002.19
2021-11-03 12:47:00,,0832.1,5.00,0.00,23.4,22.6,00.0,32.5,25.2,22.8,0000.0,0003.36,0002.35,0002.24
2021-11-03 12:48:00,,0832.2,5.00,0.00,23.4,22.6,00.0,32.5,25.2,22.8,0000.0,0003.44,0002.41,0002.28
2021-11-03 12:49:00,,0832.2,5.02,0.00,23.4,22.6,00.0,32.5,25.2,22.9,0000.0,0003.57,0002.48,0002.32
2021-11-03 12:50:00,,0832.2,5.00,0.00,23.4,22.6,00.0,32.5,25.2,22.9,0000.0,0003.71,0002.56,0002.36
2021-11-03 12:51:00,,0832.3,5.00,0.00,23.4,22.6,00.0,32.5,25.1,22.8,0000.0,0003.83,0002.61,0002.38
2021-11-03 12:52:00,,0832.3,5.00,0.00,23.4,22.6,00.0,32.5,25.2,22.7,0000.0,0003.94,0002.63,0002.39
2021-11-03 12:53:00,,0832.3,5.01,0.00,23.4,22.5,00.0,32.5,25.2,22.6,0000.0,0003.95,0002.62,0002.40
2021-11-03 12:54:00,,0832.4,4.98,0.00,23.4,22.5,00.0,32.5,25.2,22.7,0000.0,0004.03,0002.63,0002.41
2021-11-03 12:55:00,,0832.4,5.01,0.00,23.4,22.5,00.0,32.5,25.1,22.8,0000.0,0004.16,0002.69,0002.46
2021-11-03 12:56:00,,0832.4,5.01,0.00,23.4,22.5,00.0,32.5,25.2,22.8,0000.0,0004.18,0002.71,0002.48
2021-11-03 12:57:00,,0832.3,4.99,0.00,23.4,22.5,00.0,32.5,25.1,22.8,0000.0,0003.62,0002.72,0002.48
2021-11-03 12:58:00,,0832.3,5.00,0.00,23.4,22.5,00.0,32.5,25.1,22.5,0000.0,0003.47,0002.71,0002.45
2021-11-03 12:59:00,,0832.3,5.01,0.00,23.4,22.5,00.0,32.5,25.1,22.3,0000.0,0003.41,0002.67,0002.43
